TimeMST,TemperatureF,Dew PointF,Humidity,Sea Level PressureIn,VisibilityMPH,Wind Direction,Wind SpeedMPH,Gust SpeedMPH,PrecipitationIn,Events,Conditions,WindDirDegrees,DateUTC
12:53 AM,41.0,10.9,29,30.09,10.0,North,4.6,-,N/A,,Clear,10,2014-01-16 07:53:00
1:53 AM,41.0,10.9,29,30.10,10.0,NNW,4.6,-,N/A,,Clear,330,2014-01-16 08:53:00
2:53 AM,37.0,10.9,34,30.10,10.0,NW,3.5,-,N/A,,Clear,320,2014-01-16 09:53:00
3:53 AM,41.0,10.0,28,30.07,10.0,NNW,4.6,-,N/A,,Clear,340,2014-01-16 10:53:00
4:53 AM,34.0,10.9,38,30.10,10.0,North,4.6,-,N/A,,Clear,360,2014-01-16 11:53:00
5:53 AM,32.0,10.9,42,30.13,10.0,NW,5.8,-,N/A,,Clear,320,2014-01-16 12:53:00
6:53 AM,30.9,10.9,43,30.17,10.0,North,5.8,-,N/A,,Clear,10,2014-01-16 13:53:00
7:53 AM,34.0,10.9,38,30.18,10.0,Variable,4.6,-,N/A,,Clear,0,2014-01-16 14:53:00
8:53 AM,43.0,12.0,28,30.18,10.0,North,12.7,-,N/A,,Clear,360,2014-01-16 15:53:00
9:53 AM,48.9,10.9,22,30.17,10.0,North,8.1,-,N/A,,Clear,10,2014-01-16 16:53:00
10:53 AM,51.1,10.0,19,30.15,10.0,Variable,6.9,-,N/A,,Clear,0,2014-01-16 17:53:00
11:53 AM,55.0,10.0,17,30.10,10.0,NE,8.1,-,N/A,,Clear,40,2014-01-16 18:53:00
12:53 PM,57.9,10.0,15,30.06,10.0,NNE,11.5,-,N/A,,Clear,20,2014-01-16 19:53:00
1:53 PM,60.1,10.0,14,30.04,10.0,NNE,11.5,-,N/A,,Clear,30,2014-01-16 20:53:00
2:53 PM,60.1,10.0,14,30.04,10.0,NE,12.7,-,N/A,,Clear,50,2014-01-16 21:53:00
3:53 PM,60.1,10.0,14,30.03,10.0,NE,8.1,-,N/A,,Clear,40,2014-01-16 22:53:00
4:53 PM,57.9,9.0,14,30.06,10.0,ENE,5.8,-,N/A,,Clear,60,2014-01-16 23:53:00
5:53 PM,50.0,12.0,22,30.11,10.0,NNE,4.6,-,N/A,,Clear,20,2014-01-17 00:53:00
6:53 PM,50.0,10.0,20,30.12,10.0,North,4.6,-,N/A,,Clear,350,2014-01-17 01:53:00
7:53 PM,41.0,10.0,28,30.15,10.0,WNW,6.9,-,N/A,,Clear,290,2014-01-17 02:53:00
8:53 PM,39.0,10.9,32,30.16,10.0,WNW,6.9,-,N/A,,Clear,300,2014-01-17 03:53:00
9:53 PM,39.0,10.0,30,30.15,10.0,NW,8.1,-,N/A,,Clear,310,2014-01-17 04:53:00
10:53 PM,37.0,10.0,33,30.15,10.0,WNW,8.1,-,N/A,,Clear,290,2014-01-17 05:53:00
11:53 PM,42.1,9.0,26,30.14,10.0,NNW,5.8,-,N/A,,Clear,330,2014-01-17 06:53:00